This demonstration page uses our WeatherBlox Daily Observations layout. Learn more.

Left ArrowRight Arrow

Hourly Observations for July 28, 2018

Temp ( °F °C ) Dew Point ( °F °C ) Humidity (%) Winds ( mph kmh ) Pressure ( in mb ) Visibility ( mi km ) Precip ( " mm )
12:53 am 00:53 Clear 67 19.4 63 17.2 87 87 E 7 11 30.09 1019 10 16 0.00 0.00
1:53 am 01:53 Clear 67 19.4 63 17.2 87 87 E 9 15 30.08 1019 10 16 0.00 0.00
2:53 am 02:53 Clear 65 18.3 63 17.2 93 93 E 7 11 30.08 1019 10 16 0.00 0.00
3:53 am 03:53 Clear 63 17.2 62 16.7 97 97 NE 3 6 30.09 1019 10 16 0.00 0.00
4:53 am 04:53 Partly Cloudy 62 16.7 61 16.1 96 96 E 7 11 30.09 1019 8 13 0.00 0.00
5:10 am 05:10 Mostly Cloudy 61 16 61 16 100 100 E 9 15 30.06 1018 7 11 0.00 0.00
5:53 am 05:53 Cloudy with Mist and Fog 62 16.7 61 16.1 96 96 E 10 17 30.08 1019 4 6 0.00 0.00
6:53 am 06:53 Cloudy with Mist and Fog 62 16.7 61 16.1 96 96 E 9 15 30.11 1020 4 6 0.00 0.00
7:02 am 07:02 Mostly Cloudy with Mist and Fog 63 17 61 16 94 94 E 9 15 30.09 1019 5 8 0.00 0.00
7:53 am 07:53 Mostly Cloudy 63 17.2 61 16.1 93 93 ESE 9 15 30.11 1020 9 14 0.00 0.00
8:53 am 08:53 Mostly Cloudy 65 18.3 61 16.1 87 87 ESE 9 15 30.12 1020 10 16 0.00 0.00
9:53 am 09:53 Cloudy 66 18.9 61 16.1 84 84 ESE 7 11 30.14 1021 10 16 0.00 0.00
10:53 am 10:53 Mostly Cloudy 70 21.1 62 16.7 76 76 S 10 17 30.11 1020 10 16 0.00 0.00
11:03 am 11:03 Partly Cloudy 71 21.7 62 16.7 73 73 ESE 6 9 30.06 1018 10 16 0.00 0.00
11:53 am 11:53 Partly Cloudy 74 23.3 64 17.8 71 71 ENE 10 17 30.09 1019 10 16 0.00 0.00
12:53 pm 12:53 Mostly Sunny 76 24.4 64 17.8 67 67 NE 8 13 30.08 1019 10 16 0.00 0.00
1:36 pm 13:36 Mostly Cloudy 75 24 64 18 69 69 VRB 6 9 30.00 1016 10 16 0.00 0.00
1:53 pm 13:53 Mostly Cloudy 77 25 65 18.3 66 66 ENE 7 11 30.08 1019 10 16 0.00 0.00
2:24 pm 14:24 Mostly Cloudy 77 25 64 18 65 65 ENE 7 11 30.00 1016 10 16 0.00 0.00
2:53 pm 14:53 Cloudy 77 25 65 18.3 66 66 ENE 8 13 30.07 1018 10 16 0.00 0.00
3:53 pm 15:53 Cloudy 79 26.1 66 18.9 65 65 ENE 7 11 30.06 1018 10 16 0.00 0.00
4:53 pm 16:53 Partly Cloudy 78 25.6 65 18.3 64 64 ENE 8 13 30.05 1018 10 16 0.00 0.00
5:53 pm 17:53 Mostly Sunny 79 26.1 65 18.3 62 62 ENE 7 11 30.04 1017 10 16 0.00 0.00
6:53 pm 18:53 Mostly Cloudy 77 25 64 17.8 64 64 E 9 15 30.04 1017 10 16 0.00 0.00
7:53 pm 19:53 Sunny 73 22.8 67 19.4 81 81 E 10 17 30.05 1018 10 16 0.00 0.00
8:53 pm 20:53 Cloudy 71 21.7 66 18.9 84 84 ENE 9 15 30.06 1018 10 16 0.00 0.00
9:53 pm 21:53 Clear 69 20.6 66 18.9 90 90 NE 8 13 30.09 1019 10 16 0.00 0.00
10:53 pm 22:53 Cloudy with Light Rain 68 20 65 18.3 90 90 E 6 9 30.11 1020 10 16 0.00 0.03
11:53 pm 23:53 Mostly Cloudy 67 19.4 65 18.3 93 93 NE 10 17 30.11 1020 10 16 0.00 0.03

Powered by AerisWeather